Flag for Poland Weather past 2 weeks in Gorzów Wielkopolski, Poland

Now
56 °F

Overcast.


Feels Like: 56 °F
Forecast: 54 / 74 °F
Wind: 2 mph from Northeast

Location: Gorzow Wlkp

Current Time: Sep 3, 2014 at 3:26:38 AM

Latest Report: Sep 3, 2014 at 2:00 AM


Visibility: 19 mi

Pressure: 30.28 "Hg

Humidity: 89%

Dew point: 53 °F

Location of Gorzów WielkopolskiLocation

Historic Weather in Gorzów Wielkopolski — Graph

°F

Gorzów Wielkopolski temperature yesterday

Maximum temperature yesterday: 62 °F (at 2:00 PM)
Minimum temperature yesterday: 55 °F (at 5:00 AM)
Average temperature yesterday: 57 °F

Past Weeks' High & Low Weather Summary

 TemperatureHumidityPressure
High73 °F (Aug 29, 2:00 PM)99% (Aug 30, 3:00 AM)30.28 "Hg (Aug 30, 3:00 AM)
Low45 °F (Aug 25, 6:00 AM)33% (Aug 22, 2:00 PM)29.73 "Hg (Aug 19, 1:00 AM)
Average58 °F76%29.95 "Hg
* Reported Aug 19 1:00 AM — Sep 3 1:00 AM, Gorzów Wielkopolski, Weather by CustomWeather, © 2014

Note: Actual official high and low records may vary slightly from our data, if they occured in-between our weather recording intervals... More about our weather records

Advertising

Gorzów Wielkopolski weather history for previous 24 hours

 ConditionsComfort  
Time TempWeatherWind HumidityBarometerVisibility
1:00 AM
Sep 3
56 °FOvercast.2 mph87%30.28 "Hg25 mi
12:00 AM57 °FOvercast.2 mph87%30.28 "Hg25 mi
11:00 PM
Sep 2
56 °FOvercast.2 mph88%30.27 "Hg25 mi
10:00 PM56 °FOvercast.1 mph88%30.27 "Hg25 mi
9:00 PM56 °FOvercast.1 mph87%30.25 "Hg25 mi
8:00 PM57 °FOvercast.1 mph86%30.24 "Hg19 mi
7:00 PM58 °FOvercast.2 mph79%30.23 "Hg19 mi
6:00 PM58 °FOvercast.2 mph77%30.22 "Hg19 mi
5:00 PM59 °FLight rain. Overcast.2 mph77%30.22 "Hg19 mi
4:00 PM60 °FOvercast.5 mph70%30.21 "Hg16 mi
3:00 PM61 °FOvercast.3 mph69%30.20 "Hg19 mi
2:00 PM62 °FLight rain. Overcast.3 mph74%30.19 "Hg16 mi
1:00 PM60 °FOvercast.5 mph77%30.18 "Hg16 mi
12:00 PM60 °FOvercast.3 mph82%30.17 "Hg19 mi
11:00 AM59 °FOvercast.3 mph86%30.16 "Hg16 mi
10:00 AM57 °FOvercast.3 mph89%30.16 "Hg16 mi
9:00 AM56 °FOvercast.3 mph93%30.14 "Hg12 mi
8:00 AM55 °FOvercast.2 mph95%30.13 "Hg12 mi
7:00 AM55 °FLight rain. Overcast.2 mph96%30.12 "Hg9 mi
6:00 AM55 °FLight rain. Low clouds.2 mph97%30.10 "Hg9 mi
5:00 AM55 °FLight rain. Low clouds.2 mph97%30.09 "Hg7 mi
4:00 AM55 °FLight rain. Low clouds.2 mph96%30.09 "Hg6 mi
3:00 AM56 °FLight rain. Low clouds.3 mph96%30.09 "Hg6 mi
Weather by CustomWeather, © 2014

See weather overviewHow to use our weather pages